Graham, TX

12:11 AM CDT on October 23, 2017 (GMT -0500)
Graham

Weather History for KRPH - November, 2013

Change the Weather History Date:

Wednesday, November 6, 2013

  Actual Average (KMWL) Record (KMWL)
Temperature  
Mean Temperature 50 °F -  
Max Temperature 65 °F 66 °F 82 °F (2004)
Min Temperature 35 °F 46 °F 35 °F (2010)
Degree Days  
Heating Degree Days 14    
Moisture  
Dew Point 38 °F    
Average Humidity 67    
Maximum Humidity 93    
Minimum Humidity 35    
Precipitation  
Precipitation 0.13 in - - ()
Sea Level Pressure  
Sea Level Pressure 30.24 in    
Wind  
Wind Speed 11 mph (NNW)    
Max Wind Speed 20 mph    
Max Gust Speed 26 mph    
Visibility 10 miles    
Events Rain    
Averages and records for this station are not official NWS values.
T = Trace of Precipitation, MM = Missing Value Source: NWS Daily Summary

Daily Weather History Graph

Daily Weather History Graph

Search for Another Location

Airport or City:

Trip Planner

Search our weather history database for the weather conditions in past years. The results will help you decide how hot, cold, wet, or windy it might be!

Date:

Astronomy

Nov. 06, 2013 Rise Set
Actual Time 6:57 AM CST 5:38 PM CST
Civil Twilight 6:31 AM CST 6:04 PM CST
Nautical Twilight 6:01 AM CST 6:33 PM CST
Astronomical Twilight 5:32 AM CST 7:02 PM CST
Moon 10:09 AM CST (11/6) 8:48 PM CST (11/6)
Length of Visible Light 11h 32m
Length of Day
10h 41m
Waxing Crescent, 14% of the Moon is Illuminated
Nov 6
Waxing Crescent
Nov 9
First Quarter
Nov 17
Full
Nov 25
Last Quarter
Dec 2
New

Hourly Weather History & Observations

Time (CST) Temp. Windchill Dew Point Humidity Pressure Visibility Wind Dir Wind Speed Gust Speed Precip Events Conditions
12:35 AM 65.7 °F - 63.5 °F 93% 29.99 in 10.0 mi WNW 6.9 mph - N/A   Mostly Cloudy
12:55 AM 61.0 °F - 57.2 °F 87% 30.01 in 10.0 mi NW 12.7 mph 24.2 mph N/A Rain Light Rain
1:15 AM 56.5 °F - 53.6 °F 90% 30.03 in 10.0 mi NNW 13.8 mph 26.5 mph N/A Rain Light Rain
1:35 AM 53.6 °F - 51.3 °F 92% 30.03 in 2.5 mi NNW 19.6 mph 25.3 mph 0.11 in Rain Heavy Rain
1:55 AM 51.3 °F - 49.1 °F 92% 30.05 in 10.0 mi NNW 15.0 mph 24.2 mph 0.13 in Rain Light Rain
2:15 AM 50.9 °F - 48.0 °F 90% 30.06 in 10.0 mi NNW 15.0 mph 21.9 mph N/A   Overcast
2:35 AM 50.2 °F - 46.9 °F 89% 30.04 in 10.0 mi NNW 15.0 mph 21.9 mph N/A   Overcast
2:55 AM 50.0 °F - 46.6 °F 88% 30.08 in 10.0 mi NNW 11.5 mph 20.7 mph N/A   Overcast
3:15 AM 50.0 °F - 46.0 °F 86% 30.07 in 10.0 mi NNW 17.3 mph 23.0 mph N/A   Overcast
3:35 AM 49.6 °F - 45.5 °F 86% 30.10 in 10.0 mi North 15.0 mph 21.9 mph N/A   Overcast
3:55 AM 49.5 °F - 44.8 °F 84% 30.10 in 10.0 mi NNW 13.8 mph 20.7 mph N/A   Overcast
4:15 AM 49.1 °F - 43.9 °F 82% 30.11 in 10.0 mi NNW 16.1 mph 20.7 mph N/A   Overcast
4:35 AM 48.9 °F - 43.7 °F 82% 30.12 in 10.0 mi NW 11.5 mph 17.3 mph N/A   Mostly Cloudy
4:55 AM 47.8 °F - 42.1 °F 80% 30.13 in 10.0 mi NNW 12.7 mph 20.7 mph N/A   Scattered Clouds
5:15 AM 47.5 °F - 41.9 °F 81% 30.13 in 10.0 mi NNW 17.3 mph 24.2 mph N/A   Scattered Clouds
5:35 AM 47.3 °F - 41.9 °F 82% 30.14 in 10.0 mi NW 16.1 mph 21.9 mph N/A   Clear
5:55 AM 46.9 °F - 41.0 °F 80% 30.16 in 10.0 mi NW 15.0 mph 23.0 mph N/A   Mostly Cloudy
6:15 AM 45.5 °F 38.9 °F 39.4 °F 79% 30.17 in 10.0 mi NNW 15.0 mph 24.2 mph N/A   Scattered Clouds
6:35 AM 44.8 °F 38.7 °F 39.0 °F 80% 30.18 in 10.0 mi NW 12.7 mph 19.6 mph N/A   Scattered Clouds
6:55 AM 44.6 °F 38.1 °F 37.9 °F 77% 30.19 in 10.0 mi NNW 13.8 mph 20.7 mph N/A   Scattered Clouds
7:15 AM 44.2 °F 38.4 °F 37.6 °F 77% 30.21 in 10.0 mi NW 11.5 mph - N/A   Scattered Clouds
7:35 AM 44.2 °F 37.3 °F 37.4 °F 77% 30.22 in 10.0 mi NNW 15.0 mph 20.7 mph N/A   Mostly Cloudy
7:55 AM 43.9 °F 36.8 °F 37.0 °F 77% 30.23 in 10.0 mi NNW 15.0 mph 20.7 mph N/A   Scattered Clouds
8:15 AM 43.9 °F 35.9 °F 36.7 °F 76% 30.24 in 10.0 mi NNW 18.4 mph 23.0 mph N/A   Scattered Clouds
8:35 AM 44.4 °F 38.2 °F 36.7 °F 74% 30.24 in 10.0 mi NNW 12.7 mph 20.7 mph N/A   Clear
8:55 AM 45.0 °F 39.3 °F 37.0 °F 74% 30.26 in 10.0 mi NNW 11.5 mph - N/A   Clear
9:15 AM 45.5 °F 39.6 °F 37.4 °F 73% 30.27 in 10.0 mi NNW 12.7 mph - N/A   Scattered Clouds
9:35 AM 46.0 °F 39.0 °F 37.0 °F 71% 30.29 in 10.0 mi NNW 17.3 mph 24.2 mph N/A   Mostly Cloudy
9:55 AM 46.9 °F - 37.0 °F 68% 30.29 in 10.0 mi NNW 17.3 mph 26.5 mph N/A   Scattered Clouds
10:15 AM 48.0 °F - 37.6 °F 67% 30.29 in 10.0 mi NNW 16.1 mph - N/A   Scattered Clouds
10:35 AM 50.2 °F - 38.3 °F 64% 30.29 in 10.0 mi NW 12.7 mph 23.0 mph N/A   Scattered Clouds
10:55 AM 51.3 °F - 38.3 °F 61% 30.29 in 10.0 mi NNW 17.3 mph 21.9 mph N/A   Clear
11:15 AM 52.7 °F - 37.9 °F 57% 30.29 in 10.0 mi NNW 13.8 mph 20.7 mph N/A   Scattered Clouds
11:35 AM 53.4 °F - 38.3 °F 57% 30.29 in 10.0 mi NW 15.0 mph 19.6 mph N/A   Clear
11:55 AM 54.7 °F - 37.6 °F 53% 30.28 in 10.0 mi NNW 13.8 mph 18.4 mph N/A   Clear
12:15 PM 55.4 °F - 36.1 °F 48% 30.28 in 10.0 mi NNW 13.8 mph 18.4 mph N/A   Clear
12:35 PM 57.0 °F - 35.8 °F 45% 30.28 in 10.0 mi North 12.7 mph 19.6 mph N/A   Clear
12:55 PM 57.2 °F - 35.4 °F 44% 30.28 in 10.0 mi NNW 13.8 mph 19.6 mph N/A   Clear
1:15 PM 58.1 °F - 35.1 °F 42% 30.27 in 10.0 mi NNW 9.2 mph - N/A   Clear
1:35 PM 58.5 °F - 33.3 °F 39% 30.27 in 10.0 mi NNW 12.7 mph - N/A   Clear
1:55 PM 59.5 °F - 34.0 °F 38% 30.27 in 10.0 mi NNW 12.7 mph 17.3 mph N/A   Clear
2:15 PM 59.7 °F - 32.9 °F 36% 30.27 in 10.0 mi NNW 12.7 mph 19.6 mph N/A   Clear
2:35 PM 59.7 °F - 33.6 °F 37% 30.27 in 10.0 mi North 11.5 mph 17.3 mph N/A   Clear
2:55 PM 59.5 °F - 33.1 °F 37% 30.28 in 10.0 mi NNW 11.5 mph - N/A   Clear
3:15 PM 59.9 °F - 32.5 °F 36% 30.28 in 10.0 mi NNW 13.8 mph 21.9 mph N/A   Clear
3:35 PM 59.7 °F - 32.4 °F 36% 30.28 in 10.0 mi NNW 11.5 mph 17.3 mph N/A   Clear
3:55 PM 59.5 °F - 32.0 °F 35% 30.28 in 10.0 mi NNW 11.5 mph 18.4 mph N/A   Clear
4:15 PM 59.2 °F - 32.2 °F 36% 30.28 in 10.0 mi North 8.1 mph - N/A   Clear
4:35 PM 58.5 °F - 31.6 °F 36% 30.28 in 10.0 mi North 6.9 mph - N/A   Clear
4:55 PM 57.6 °F - 32.0 °F 38% 30.28 in 10.0 mi North 10.4 mph - N/A   Clear
5:15 PM 56.1 °F - 32.2 °F 40% 30.29 in 10.0 mi North 5.8 mph - N/A   Clear
5:35 PM 54.0 °F - 32.9 °F 45% 30.30 in 10.0 mi North 4.6 mph - N/A   Clear
5:55 PM 50.9 °F - 34.2 °F 53% 30.30 in 10.0 mi North 4.6 mph - N/A   Clear
6:15 PM 50.0 °F - 34.3 °F 55% 30.31 in 10.0 mi North 3.5 mph - N/A   Clear
6:35 PM 49.1 °F - 34.7 °F 58% 30.32 in 10.0 mi North 3.5 mph - N/A   Clear
6:55 PM 47.1 °F - 34.7 °F 62% 30.33 in 10.0 mi North 5.8 mph - N/A   Clear
7:15 PM 46.6 °F - 34.0 °F 62% 30.33 in 10.0 mi North 4.6 mph - N/A   Clear
7:35 PM 46.0 °F 43.9 °F 33.8 °F 62% 30.33 in 10.0 mi North 4.6 mph - N/A   Clear
7:55 PM 46.0 °F - 33.3 °F 61% 30.34 in 10.0 mi Calm Calm - N/A   Clear
8:15 PM 46.0 °F - 33.3 °F 61% 30.34 in 10.0 mi Calm Calm - N/A   Clear
8:35 PM 45.0 °F - 33.1 °F 63% 30.35 in 10.0 mi Calm Calm - N/A   Clear
8:55 PM 43.7 °F 42.1 °F 33.4 °F 67% 30.35 in 10.0 mi NNE 3.5 mph - N/A   Clear
9:15 PM 42.4 °F - 34.0 °F 72% 30.36 in 10.0 mi Calm Calm - N/A   Clear
9:35 PM 40.3 °F - 33.8 °F 78% 30.37 in 10.0 mi Calm Calm - N/A   Clear
9:55 PM 39.9 °F - 33.8 °F 79% 30.37 in 10.0 mi Calm Calm - N/A   Clear
10:15 PM 39.2 °F - 33.1 °F 79% 30.38 in 10.0 mi Calm Calm - N/A   Clear
10:35 PM 38.8 °F - 32.9 °F 79% 30.37 in 10.0 mi Calm Calm - N/A   Clear
10:55 PM 37.0 °F 34.5 °F 32.9 °F 85% 30.38 in 10.0 mi ENE 3.5 mph - N/A   Clear
11:15 PM 36.1 °F 33.5 °F 32.5 °F 87% 30.38 in 10.0 mi East 3.5 mph - N/A   Clear
11:35 PM 36.0 °F 31.1 °F 32.4 °F 87% 30.37 in 10.0 mi ENE 5.8 mph - N/A   Clear
11:55 PM 35.6 °F - 32.0 °F 87% 30.38 in 10.0 mi Calm Calm - N/A   Clear